Date String (YYYY-MM-DD hh:mm:ss) UTC,Instrument flags,Ambient pressure (hPa),Sample flow (lpm),Bypass flow (lpm),Sample temperature (°C),Ambient temperature (°C),ASC tube jacket temperature (°C),LED temperature (°C),Box temperature (°C),Sample RH (%),Span deviation,Mass concentration (μg/m³),Mass concentration (μg/m³),Mass concentration (μg/m³)
DateTimeUTC,F1_M11,P_M11,Q1_M11,Q2_M11,T1_M11,T2_M11,T3_M11,T4_M11,T5_M11,U1_M11,ZSPAN_M11,X2_M11,X0_M11,X1_M11
2021-11-08 19:00:00,,0831.0,5.00,0.00,27.3,26.5,00.0,36.3,29.1,15.6,-000.2,0008.14,0012.70,0007.48
2021-11-08 19:01:00,,0831.0,5.00,0.00,27.3,26.5,00.0,36.3,29.1,15.5,-000.1,0008.13,0012.48,0007.49
2021-11-08 19:02:00,,0831.0,5.00,0.00,27.3,26.5,00.0,36.3,29.1,15.5,-000.2,0008.11,0012.55,0007.50
2021-11-08 19:03:00,,0831.0,5.01,0.00,27.3,26.5,00.0,36.3,29.1,15.6,-000.3,0008.15,0013.08,0007.51
2021-11-08 19:04:00,,0831.0,5.01,0.00,27.3,26.5,00.0,36.3,29.1,15.5,-000.4,0008.16,0013.49,0007.51
2021-11-08 19:05:00,,0831.0,5.00,0.00,27.3,26.6,00.0,36.3,29.1,15.6,-000.5,0008.19,0014.64,0007.52
2021-11-08 19:06:00,,0831.0,5.00,0.00,27.3,26.6,00.0,36.3,29.1,15.5,-000.7,0008.22,0014.62,0007.54
2021-11-08 19:07:00,,0831.0,5.00,0.00,27.4,26.6,00.0,36.3,29.1,15.5,-000.6,0008.19,0014.51,0007.54
2021-11-08 19:08:00,,0831.0,4.99,0.00,27.3,26.6,00.0,36.3,29.2,15.5,-000.7,0008.19,0014.39,0007.57
2021-11-08 19:09:00,,0830.9,5.00,0.00,27.4,26.6,00.0,36.3,29.2,15.5,-000.3,0008.22,0014.52,0007.60
2021-11-08 19:10:00,,0830.9,5.01,0.00,27.4,26.6,00.0,36.3,29.2,15.5,0000.1,0008.24,0014.41,0007.62
2021-11-08 19:11:00,,0830.9,5.01,0.00,27.4,26.6,00.0,36.3,29.2,15.4,0000.4,0008.27,0014.62,0007.64
2021-11-08 19:12:00,,0830.9,4.99,0.00,27.4,26.6,00.0,36.3,29.2,15.4,0000.6,0008.36,0014.65,0007.69
2021-11-08 19:13:00,,0830.9,5.01,0.00,27.4,26.7,00.0,36.3,29.2,15.4,0000.7,0008.39,0014.54,0007.71
2021-11-08 19:14:00,,0830.9,4.99,0.00,27.4,26.7,00.0,36.4,29.3,15.4,0000.8,0008.41,0014.25,0007.74
2021-11-08 19:15:00,,0830.9,4.99,0.00,27.4,26.7,00.0,36.4,29.3,15.4,0000.8,0008.44,0013.32,0007.77
2021-11-08 19:16:00,,0830.8,4.98,0.00,27.5,26.7,00.0,36.4,29.3,15.4,0000.9,0008.47,0012.65,0007.81
2021-11-08 19:17:00,,0830.8,5.02,0.00,27.5,26.7,00.0,36.4,29.3,15.3,0001.0,0008.47,0012.74,0007.85
2021-11-08 19:18:00,,0830.9,5.00,0.00,27.5,26.7,00.0,36.4,29.3,15.3,0000.6,0008.50,0012.72,0007.88
2021-11-08 19:19:00,,0830.9,4.99,0.00,27.5,26.7,00.0,36.4,29.3,15.3,0000.6,0008.52,0013.59,0007.91
2021-11-08 19:20:00,,0830.8,4.99,0.00,27.5,26.7,00.0,36.4,29.3,15.3,0000.4,0008.54,0013.82,0007.92
2021-11-08 19:21:00,,0830.8,5.00,0.00,27.5,26.8,00.0,36.4,29.3,15.3,0000.6,0008.55,0013.65,0007.92
2021-11-08 19:22:00,,0830.7,5.01,0.00,27.5,26.8,00.0,36.5,29.4,15.2,0000.4,0008.54,0013.60,0007.92
2021-11-08 19:23:00,,0830.7,4.99,0.00,27.5,26.8,00.0,36.5,29.4,15.3,0000.2,0008.48,0013.66,0007.91
2021-11-08 19:24:00,,0830.7,5.00,0.00,27.5,26.8,00.0,36.5,29.4,15.3,-000.1,0008.46,0013.65,0007.90
2021-11-08 19:25:00,,0830.7,4.99,0.00,27.6,26.8,00.0,36.5,29.4,15.4,-000.3,0008.43,0013.59,0007.91
2021-11-08 19:26:00,,0830.6,5.01,0.00,27.6,26.9,00.0,36.5,29.4,15.3,-000.7,0008.43,0013.63,0007.89
2021-11-08 19:27:00,,0830.7,5.00,0.00,27.6,26.9,00.0,36.5,29.4,15.2,-000.8,0008.47,0013.81,0007.88
2021-11-08 19:28:00,,0830.6,4.99,0.00,27.6,26.9,00.0,36.5,29.4,15.3,-000.5,0008.48,0014.16,0007.87
2021-11-08 19:29:00,,0830.6,5.01,0.00,27.7,27.0,00.0,36.5,29.5,15.2,-000.4,0008.53,0014.40,0007.86
2021-11-08 19:30:00,,0830.6,5.01,0.00,27.7,27.0,00.0,36.6,29.5,15.3,-000.6,0008.53,0013.50,0007.84
2021-11-08 19:31:00,,0830.6,4.99,0.00,27.7,27.0,00.0,36.6,29.5,15.3,-000.3,0008.56,0013.76,0007.84
2021-11-08 19:32:00,,0830.6,5.01,0.00,27.7,27.0,00.0,36.6,29.5,15.2,-001.0,0008.60,0013.90,0007.85
2021-11-08 19:33:00,,0830.6,5.01,0.00,27.7,27.0,00.0,36.6,29.6,15.1,-001.1,0008.59,0014.05,0007.85
2021-11-08 19:34:00,,0830.6,4.98,0.00,27.7,27.1,00.0,36.6,29.5,15.1,-000.8,0008.64,0014.31,0007.87
2021-11-08 19:35:00,,0830.5,5.01,0.00,27.8,27.1,00.0,36.7,29.6,15.1,-000.2,0008.69,0015.26,0007.88
2021-11-08 19:36:00,,0830.5,5.00,0.00,27.8,27.1,00.0,36.7,29.6,15.1,0000.4,0008.73,0015.66,0007.90
2021-11-08 19:37:00,,0830.4,4.98,0.00,27.8,27.1,00.0,36.7,29.6,15.1,0000.4,0008.70,0015.56,0007.91
2021-11-08 19:38:00,,0830.4,5.01,0.00,27.8,27.2,00.0,36.7,29.7,15.1,0000.2,0008.69,0014.97,0007.93
2021-11-08 19:39:00,,0830.4,4.99,0.00,27.8,27.2,00.0,36.7,29.7,15.1,-000.1,0008.70,0014.51,0007.96
2021-11-08 19:40:00,,0830.4,5.01,0.00,27.9,27.2,00.0,36.7,29.7,15.0,0000.5,0008.70,0014.47,0007.96
2021-11-08 19:41:00,,0830.4,5.00,0.00,27.9,27.2,00.0,36.8,29.7,15.0,0001.0,0008.75,0014.69,0008.00
2021-11-08 19:42:00,,0830.4,4.99,0.00,27.9,27.2,00.0,36.8,29.8,14.9,0000.7,0008.78,0014.35,0008.03
2021-11-08 19:43:00,,0830.4,5.01,0.00,27.9,27.3,00.0,36.8,29.8,14.9,0001.3,0008.78,0014.29,0008.06
2021-11-08 19:44:00,,0830.3,5.01,0.00,28.0,27.3,00.0,36.8,29.8,14.9,0001.9,0008.84,0014.92,0008.08
2021-11-08 19:45:00,,0830.4,4.99,0.00,28.0,27.3,00.0,36.8,29.8,15.0,0001.8,0008.89,0014.69,0008.10
2021-11-08 19:46:00,,0830.3,4.99,0.00,28.0,27.3,00.0,36.9,29.9,15.0,0001.6,0008.89,0014.30,0008.12
2021-11-08 19:47:00,,0830.4,5.00,0.00,28.0,27.4,00.0,36.9,29.9,14.9,0001.5,0008.91,0013.91,0008.13
2021-11-08 19:48:00,,0830.4,5.00,0.00,28.1,27.4,00.0,36.9,29.9,14.9,0001.9,0008.98,0014.25,0008.17
2021-11-08 19:49:00,,0830.4,5.00,0.00,28.1,27.4,00.0,36.9,29.9,14.9,0001.9,0008.98,0014.27,0008.18
2021-11-08 19:50:00,,0830.4,5.00,0.00,28.1,27.4,00.0,36.9,30.0,14.9,0002.0,0008.96,0014.57,0008.17
2021-11-08 19:51:00,,0830.4,4.99,0.00,28.1,27.4,00.0,37.0,30.0,15.0,0002.1,0008.94,0014.85,0008.17
2021-11-08 19:52:00,,0830.4,4.98,0.00,28.1,27.4,00.0,37.0,30.0,14.9,0002.2,0008.94,0015.23,0008.18
2021-11-08 19:53:00,,0830.3,5.00,0.00,28.1,27.4,00.0,37.0,30.0,14.8,0002.2,0008.93,0015.67,0008.19
2021-11-08 19:54:00,,0830.2,5.00,0.00,28.1,27.4,00.0,37.0,30.0,14.8,0001.8,0008.96,0015.71,0008.21
2021-11-08 19:55:00,,0830.3,5.01,0.00,28.2,27.4,00.0,37.0,30.0,14.9,0001.5,0008.95,0016.09,0008.21
2021-11-08 19:56:00,,0830.3,5.00,0.00,28.2,27.5,00.0,37.1,30.0,14.9,0000.9,0008.93,0015.93,0008.22
2021-11-08 19:57:00,,0830.3,4.99,0.00,28.2,27.5,00.0,37.1,30.0,14.9,0000.7,0008.94,0015.98,0008.23
2021-11-08 19:58:00,,0830.3,4.98,0.00,28.2,27.5,00.0,37.1,30.0,14.8,0000.5,0008.97,0016.53,0008.26
2021-11-08 19:59:00,,0830.2,5.00,0.00,28.2,27.5,00.0,37.1,30.1,14.8,0000.2,0008.98,0016.65,0008.27
